User: anonymous   Login
Location: Ponte Samoggia
(44.5667°N, 11.1333°E)
Time: 17:15:35
(UTC+00:00)
Language:

Cosmos 1455 - Orbit

View from above orbital plane
View from above orbital plane
View from above satellite
View from above satellite

Ground track
Ground track

The orbit data is extracted from the following two-line orbital elements,

1 14032U 83037A   22228.84683723  .00004297  00000-0  19112-3 0  9997
2 14032  82.5156  20.5274 0015883 187.7677 172.3316 15.21117804147417
Epoch (UTC): 16 August 2022 20:19:26
Eccentricity: 0.0015883
inclination: 82.5156°
perigee height: 491 km
apogee height: 513 km
right ascension of ascending node: 20.5274°
argument of perigee: 187.7677°
revolutions per day: 15.21117804
mean anomaly at epoch: 172.3316°
orbit number at epoch: 14741

The dashed part of the orbit path shows where the satellite is in the earth's shadow,  

DLR